Weather History for KJAC - November, 2013

Change the Weather History Date:

Thursday, November 21, 2013

  Actual Average Record
Temperature  
Mean Temperature 19 °F -  
Max Temperature 30 °F 33 °F 49 °F (1989)
Min Temperature 6 °F 10 °F -8 °F (1979)
Degree Days  
Heating Degree Days 46    
Moisture  
Dew Point 14 °F    
Average Humidity 76    
Maximum Humidity 93    
Minimum Humidity 34    
Precipitation  
Precipitation 0.03 in - - ()
Sea Level Pressure  
Sea Level Pressure 30.18 in    
Wind  
Wind Speed 14 mph (North)    
Max Wind Speed 18 mph    
Max Gust Speed 29 mph    
Visibility 10 miles    
Events      
Averages and records for this station are not official NWS values.
T = Trace of Precipitation, MM = Missing Value Source: NWS Daily Summary

Daily Weather History Graph

Daily Weather History Graph

Search for Another Location

Airport or City:

Trip Planner

Search our weather history database for the weather conditions in past years. The results will help you decide how hot, cold, wet, or windy it might be!

Date:

Astronomy

Nov. 21, 2013 Rise Set
Actual Time 7:24 AM MST 4:52 PM MST
Civil Twilight 6:53 AM MST 5:23 PM MST
Nautical Twilight 6:18 AM MST 5:59 PM MST
Astronomical Twilight 5:44 AM MST 6:33 PM MST
Moon 8:33 PM MST (11/21) 10:32 AM MST (11/21)
Length of Visible Light 10h 30m
Length of Day
9h 27m
Waning Gibbous, 85% of the Moon is Illuminated
Nov 21
Waning Gibbous
Nov 25
Last Quarter
Dec 2
New
Dec 9
First Quarter
Dec 17
Full

Hourly Weather History & Observations

Time (MST) Temp. Windchill Dew Point Humidity Pressure Visibility Wind Dir Wind Speed Gust Speed Precip Events Conditions
12:15 AM 28.4 °F 17.0 °F 21.2 °F 74% 29.94 in 10.0 mi NNE 15.0 mph 24.2 mph N/A   Overcast
12:35 AM 26.6 °F 13.8 °F 21.2 °F 80% 29.93 in 10.0 mi NNE 17.3 mph 23.0 mph N/A   Overcast
12:55 AM 26.6 °F 15.2 °F 21.2 °F 80% 29.94 in 10.0 mi North 13.8 mph - N/A   Overcast
1:35 AM 26.6 °F 15.7 °F 23.0 °F 86% 29.95 in 10.0 mi North 12.7 mph 24.2 mph N/A   Overcast
1:55 AM 26.6 °F 14.3 °F 19.4 °F 74% 29.95 in 10.0 mi NNE 16.1 mph - N/A   Overcast
2:15 AM 26.6 °F 13.8 °F 19.4 °F 74% 29.96 in 10.0 mi North 17.3 mph 21.9 mph N/A   Overcast
2:35 AM 26.6 °F 14.7 °F 17.6 °F 69% 29.97 in 10.0 mi North 15.0 mph 26.5 mph N/A   Overcast
2:55 AM 24.8 °F 13.4 °F 17.6 °F 74% 29.98 in 10.0 mi North 12.7 mph 23.0 mph N/A   Overcast
3:15 AM 24.8 °F 12.9 °F 17.6 °F 74% 29.98 in 10.0 mi North 13.8 mph - N/A   Overcast
3:35 AM 24.8 °F 11.1 °F 19.4 °F 80% 29.99 in 10.0 mi North 18.4 mph 24.2 mph N/A   Overcast
3:55 AM 24.8 °F 12.9 °F 17.6 °F 74% 29.99 in 10.0 mi North 13.8 mph - N/A   Mostly Cloudy
4:15 AM 23.0 °F 10.1 °F 17.6 °F 80% 30.00 in 10.0 mi North 15.0 mph - N/A   Clear
4:35 AM 21.2 °F 10.9 °F 19.4 °F 93% 30.01 in 10.0 mi NNE 9.2 mph - N/A   Clear
4:55 AM 21.2 °F 7.8 °F 19.4 °F 93% 30.02 in 10.0 mi North 15.0 mph - N/A   Clear
5:15 AM 23.0 °F 13.9 °F 19.4 °F 86% 30.04 in 10.0 mi NNE 8.1 mph - N/A   Clear
5:35 AM 23.0 °F 10.6 °F 17.6 °F 80% 30.04 in 10.0 mi NNE 13.8 mph - N/A   Clear
5:55 AM 21.2 °F 9.5 °F 17.6 °F 86% 30.05 in 10.0 mi NNE 11.5 mph - N/A   Clear
6:15 AM 21.2 °F 8.9 °F 17.6 °F 86% 30.06 in 10.0 mi NNE 12.7 mph - N/A   Clear
6:35 AM 21.2 °F 7.3 °F 15.8 °F 80% 30.07 in 10.0 mi NNE 16.1 mph 21.9 mph N/A   Clear
6:53 AM 21.2 °F 7.8 °F 15.8 °F 80% 30.08 in 10.0 mi North 15.0 mph - N/A   Clear
7:51 AM 19.4 °F 6.0 °F 14.0 °F 80% 30.12 in 10.0 mi NNW 13.8 mph - N/A   Clear
8:55 AM 21.2 °F 8.9 °F 15.8 °F 80% 30.15 in 10.0 mi North 12.7 mph - N/A   Partly Cloudy
9:55 AM 21.2 °F 8.3 °F 17.6 °F 86% 30.20 in 10.0 mi North 13.8 mph - N/A   Clear
10:52 AM 24.8 °F 11.1 °F 17.6 °F 74% 30.21 in 10.0 mi North 18.4 mph - N/A   Clear
11:59 AM 26.6 °F 13.4 °F 17.6 °F 69% 30.21 in 10.0 mi NNE 18.4 mph - N/A   Clear
12:53 PM 26.6 °F 14.3 °F 17.6 °F 69% 30.21 in 10.0 mi NNE 16.1 mph 24.2 mph N/A   Clear
1:52 PM 28.4 °F 16.2 °F 10.4 °F 47% 30.23 in 10.0 mi North 17.3 mph 28.8 mph N/A   Clear
2:53 PM 30.2 °F 18.1 °F 21.2 °F 69% 30.25 in 10.0 mi North 18.4 mph 23.0 mph N/A   Clear
3:51 PM 28.4 °F 16.2 °F 3.2 °F 34% 30.28 in 10.0 mi North 17.3 mph 23.0 mph N/A   Clear
4:51 PM 26.6 °F 16.8 °F 5.0 °F 40% 30.31 in 10.0 mi NNE 10.4 mph 17.3 mph N/A   Clear
5:54 PM 24.8 °F 13.4 °F 6.8 °F 46% 30.34 in 10.0 mi NNE 12.7 mph - N/A   Clear
6:51 PM 23.0 °F 12.4 °F 8.6 °F 54% 30.37 in 10.0 mi North 10.4 mph - N/A   Clear
7:53 PM 19.4 °F 6.0 °F 8.6 °F 63% 30.39 in 10.0 mi NNW 13.8 mph - N/A   Clear
8:55 PM 14.0 °F 2.9 °F 8.6 °F 79% 30.41 in 10.0 mi NNE 8.1 mph - N/A   Clear
9:15 PM 12.2 °F 1.7 °F 8.6 °F 85% 30.42 in 10.0 mi North 6.9 mph - N/A   Clear
9:35 PM 10.4 °F -4.8 °F 8.6 °F 92% 30.41 in 10.0 mi North 12.7 mph - N/A   Clear
9:55 PM 10.4 °F -0.4 °F 6.8 °F 85% 30.42 in 10.0 mi NNE 6.9 mph - N/A   Clear
10:15 PM 10.4 °F 4.0 °F 6.8 °F 85% 30.44 in 10.0 mi WNW 3.5 mph - N/A   Clear
10:35 PM 8.6 °F -2.6 °F 5.0 °F 85% 30.45 in 10.0 mi NNW 6.9 mph - N/A   Clear
10:55 PM 8.6 °F 0.1 °F 5.0 °F 85% 30.46 in 10.0 mi NNE 4.6 mph - N/A   Clear
11:15 PM 8.6 °F 0.1 °F 3.2 °F 79% 30.47 in 10.0 mi North 4.6 mph - N/A   Clear
11:35 PM 8.6 °F -2.6 °F 3.2 °F 79% 30.47 in 10.0 mi North 6.9 mph - N/A   Clear
11:55 PM 6.8 °F -6.9 °F 3.2 °F 85% 30.48 in 10.0 mi North 9.2 mph - N/A   Clear